George Bush Intercontinental Houston Airport Houston US
ICAO: KIAH
IATA: IAH
Category: Large
Scheduled Services: Yes

Elevation: 97 ft
TransAlt. 18000 ft.

Airport Communications:
APP:120.05
ATIS:124.05
CLNC DEL:128.1
DEP:28.14
DEP:119.7
GND:118.575
MONTGOMERY CO RDO:122.4
TWR:29.02
TWR:120.725
UNICOM:122.95

KIAH Zoom In..

If Map Doesn't Load, Click Here

Runways:

(A) RW 08L length 9000 ft width 150 ft
ILS 111.55 / hdg 85

(B) RW 08R length 9402 ft width 150 ft
ILS 109.70 / hdg 85

(C) RW 09 length 10000 ft width 150 ft
ILS 110.90 / hdg 85

(D) RW 15L length 12001 ft width 150 ft
---- / hdg 147

(E) RW 15R length 10000 ft width 150 ft
ILS 111.15 / hdg 147

(F) RW 26L length 9402 ft width 150 ft
ILS 109.70 / hdg 265

(G) RW 26R length 9000 ft width 150 ft
ILS 111.55 / hdg 265

(H) RW 27 length 10000 ft width 150 ft
ILS 110.90 / hdg 265

(I) RW 33L length 10000 ft width 150 ft
---- / hdg 327

(J) RW 33R length 12001 ft width 150 ft
ILS 111.90 / hdg 327

Location; KIAH
Day. 21 / Time. 12.53 Zulu
* Altimeter: 29.96
* Temperature: 26° c. 78.8°f.
* Wind from: 130° Speed 07 kn.
Dewpoint: 26° c.
Visibility: 10 Statute Miles.
Clouds: Few 7000 ft.
Clouds: Scattered 12000 ft.
Clouds: Overcast 16000 ft.

KIAH 211253Z 13007KT 10SM FEW070 SCT120 OVC160 26/26 A2996 RMK AO2 RAB04E47 SLP145 P0002 T02610261


Wind From 130°
Speed 07 kn.

 
 
jpsmedia.com for Web Design worldairports.se 2018   terms of use